Bloomington, IN

3:54 AM EST on November 21, 2017 (GMT -0500)
Monroe County

Weather History for KBMG - January, 2004

Change the Weather History Date:

Tuesday, January 13, 2004

  Actual Average Record
Temperature  
Mean Temperature 31 °F 29 °F  
Max Temperature 39 °F 38 °F 65 °F (2013)
Min Temperature 21 °F 20 °F -9 °F (1997)
Degree Days  
Heating Degree Days 34 36  
Month to date heating degree days 468  
Since 1 July heating degree days 2541  
Cooling Degree Days 0 0  
Month to date cooling degree days 0  
Year to date cooling degree days 0  
Moisture  
Dew Point 25 °F    
Average Humidity 80    
Maximum Humidity 100    
Minimum Humidity 50    
Precipitation  
Precipitation 0.00 in 0.12 in 1.73 in (2013)
Month to date precipitation 1.64  
Year to date precipitation 1.64  
Sea Level Pressure  
Sea Level Pressure 30.27 in    
Wind  
Wind Speed 7 mph (NW)    
Max Wind Speed 12 mph    
Max Gust Speed 18 mph    
Visibility 8 miles    
Events      
T = Trace of Precipitation, MM = Missing Value Source: NWS Daily Summary

Daily Weather History Graph

Daily Weather History Graph

Search for Another Location

Airport or City:

Trip Planner

Search our weather history database for the weather conditions in past years. The results will help you decide how hot, cold, wet, or windy it might be!

Date:

Astronomy

Jan. 13, 2004 Rise Set
Actual Time 8:05 AM EST 5:45 PM EST
Civil Twilight 7:35 AM EST 6:14 PM EST
Nautical Twilight 7:02 AM EST 6:47 PM EST
Astronomical Twilight 6:30 AM EST 7:20 PM EST
Moon No Moon Rise 11:40 AM EST (1/13)
Length of Visible Light 10h 39m
Length of Day
9h 40m
Waning Gibbous, 66% of the Moon is Illuminated
Jan 13
Waning Gibbous
Jan 14
Last Quarter
Jan 21
New
Jan 29
First Quarter
Feb 6
Full

Hourly Weather History & Observations

Time (EST) Temp. Windchill Dew Point Humidity Pressure Visibility Wind Dir Wind Speed Gust Speed Precip Events Conditions
12:53 AM 32.0 °F 26.4 °F 30.9 °F 96% 30.24 in 6.0 mi WSW 5.8 mph - N/A   Clear
1:53 AM 30.9 °F 23.5 °F 30.9 °F 100% 30.23 in 6.0 mi WSW 8.1 mph - N/A   Clear
2:53 AM 32.0 °F 24.2 °F 30.9 °F 96% 30.23 in 5.0 mi WSW 9.2 mph - N/A   Clear
3:53 AM 33.1 °F 26.9 °F 32.0 °F 96% 30.21 in 5.0 mi WSW 6.9 mph - N/A   Clear
4:53 AM 32.0 °F 24.2 °F 30.9 °F 96% 30.21 in 5.0 mi WSW 9.2 mph - N/A   Clear
5:53 AM 30.9 °F 23.5 °F 30.9 °F 100% 30.21 in 4.0 mi West 8.1 mph - N/A   Clear
6:53 AM 33.1 °F 25.5 °F 30.9 °F 92% 30.21 in 6.0 mi West 9.2 mph - N/A   Clear
7:53 AM 32.0 °F 24.2 °F 30.9 °F 96% 30.22 in 6.0 mi West 9.2 mph - N/A   Clear
8:53 AM 32.0 °F 23.0 °F 30.9 °F 96% 30.24 in 5.0 mi NW 11.5 mph - N/A   Clear
9:53 AM 33.1 °F 25.5 °F 30.9 °F 92% 30.26 in 6.0 mi WNW 9.2 mph - N/A   Clear
10:53 AM 35.1 °F 27.4 °F 27.0 °F 72% 30.29 in 10.0 mi NW 10.4 mph 18.4 mph N/A   Clear
11:53 AM 37.0 °F 29.3 °F 27.0 °F 67% 30.29 in 10.0 mi NW 11.5 mph 17.3 mph N/A   Partly Cloudy
12:53 PM 37.9 °F 32.1 °F 21.9 °F 53% 30.28 in 10.0 mi NW 8.1 mph 18.4 mph N/A   Clear
1:53 PM 37.9 °F 31.5 °F 21.0 °F 51% 30.27 in 10.0 mi North 9.2 mph - N/A   Clear
2:53 PM 39.0 °F 32.8 °F 21.9 °F 50% 30.28 in 10.0 mi North 9.2 mph - N/A   Clear
3:53 PM 37.9 °F 32.1 °F 21.0 °F 51% 30.28 in 10.0 mi North 8.1 mph - N/A   Clear
4:53 PM 36.0 °F 28.5 °F 21.0 °F 55% 30.29 in 10.0 mi North 10.4 mph - N/A   Clear
5:53 PM 30.0 °F 23.2 °F 19.9 °F 66% 30.30 in 10.0 mi North 6.9 mph - N/A   Clear
6:53 PM 27.0 °F 20.5 °F 21.0 °F 78% 30.31 in 10.0 mi North 5.8 mph - N/A   Clear
7:53 PM 28.0 °F 24.2 °F 21.0 °F 75% 30.32 in 7.0 mi NNW 3.5 mph - N/A   Clear
8:53 PM 27.0 °F - 21.0 °F 78% 30.32 in 10.0 mi Calm Calm - N/A   Clear
9:53 PM 24.1 °F - 19.9 °F 84% 30.31 in 10.0 mi Calm Calm - N/A   Clear
10:53 PM 23.0 °F - 19.0 °F 85% 30.31 in 10.0 mi Calm Calm - N/A   Clear
11:53 PM 21.9 °F - 18.0 °F 85% 30.29 in 10.0 mi Calm Calm - N/A   Clear